Location: Sommers-Bausch Observatory
(40.0037°N, 105.2635°W)
Time: 19:21:26
(UTC-07:00)

Amateur Radio Satellites - All Passes

Search period start: 22 December 2014 18:51
Search period end: 23 December 2014 18:51
Location: Sommers-Bausch Observatory, 40.0037°N, 105.2635°W

Satellite Date Start Highest point End Downlink Frequencies (MHz)
Time Altitude Azimuth
SEEDS 22 Dec 18:58:54 19:00:23 12° 63° (ENE) 19:01:51 437.485
GOMX 1 22 Dec 19:00:41 19:01:03 10° 62° (ENE) 19:01:26 467.674
Cubesat XI-IV 22 Dec 19:02:09 19:04:51 14° 269° (W) 19:07:35 437.490
DANDE 22 Dec 19:02:10 19:08:53 29° 70° (ENE) 19:16:08 436.750
CUTE 1.7 + AOD 2 22 Dec 19:04:15 19:06:49 16° 65° (ENE) 19:09:23 437.475
GONETS M04 22 Dec 19:04:26 19:06:27 11° 287° (WNW) 19:08:28
DOVE 4 22 Dec 19:14:35 19:15:35 11° 62° (ENE) 19:16:36 437.250
STRAND 1 22 Dec 19:21:34 19:26:36 63° 287° (WNW) 19:31:37 437.568
CUSAT 1 22 Dec 19:41:34 19:49:25 59° 77° (ENE) 19:57:47 437.405
SO-50 22 Dec 19:43:35 19:47:35 32° 114° (ESE) 19:51:43 436.795
AAUSAT CUBESAT 2 22 Dec 19:46:09 19:49:45 28° 70° (ENE) 19:53:22 437.432
Oscar 11 22 Dec 19:48:38 19:51:17 16° 65° (ENE) 19:53:56 145.826/435.025
ISS 22 Dec 19:49:19 19:52:25 40° 223° (SW) 19:55:30 145.825
CUBESAT XI-V 22 Dec 19:54:31 19:58:00 22° 293° (WNW) 20:01:28 437.345
UKube-1 22 Dec 19:58:48 20:01:25 16° 64° (ENE) 20:04:02 .
CANX-2 22 Dec 20:07:31 20:11:48 87° 77° (ENE) 20:16:07 2200.000
BEESAT 3 22 Dec 20:08:56 20:11:17 14° 43° (NE) 20:13:36 437.485
BRITE-PL 22 Dec 20:20:04 20:24:12 67° 259° (WSW) 20:28:21 437.365/2234.400
COMPASS 1 22 Dec 20:22:30 20:26:43 84° 77° (ENE) 20:31:00 437.405
HO-68 22 Dec 20:23:09 20:30:18 69° 256° (WSW) 20:37:29 435.675
CUBEBUG 2 22 Dec 20:24:16 20:27:36 23° 68° (ENE) 20:31:01 437.445
ZACube-1 22 Dec 20:25:04 20:27:51 17° 66° (ENE) 20:30:41 437.345
DELFI C3 22 Dec 20:25:05 20:28:42 31° 71° (ENE) 20:32:21 145.870
AIST 2 22 Dec 20:30:13 20:31:37 11° 39° (NE) 20:33:00 435.215
SEEDS 22 Dec 20:31:26 20:35:38 64° 259° (W) 20:39:54 437.485
GOMX 1 22 Dec 20:34:30 20:38:36 66° 259° (W) 20:42:47 467.674
VELOX 1 22 Dec 20:35:51 20:38:05 14° 63° (ENE) 20:40:19 145.980
CUTE 1.7 + AOD 2 22 Dec 20:38:15 20:42:21 45° 261° (W) 20:46:29 437.475
DANDE 22 Dec 20:44:51 20:52:45 67° 265° (W) 21:01:20 436.750
DOVE 4 22 Dec 20:48:42 20:52:47 63° 259° (W) 20:56:59 437.250
RS-15 22 Dec 20:49:23 21:00:42 81° 242° (WSW) 21:12:32 29.354- 29.394
FUNcube-1 22 Dec 20:49:57 20:53:39 31° 70° (ENE) 20:57:27 145.935
BEESAT 2 22 Dec 20:50:08 20:53:49 29° 50° (NE) 20:57:27 435.950
CINEMA 3 22 Dec 20:56:04 21:00:13 89° 78° (ENE) 21:04:32 145.822/145.860
UWE-3 22 Dec 20:56:34 21:00:34 45° 73° (ENE) 21:04:40 435.000/436.395/437.385
PCSat 22 Dec 20:58:48 21:02:34 19° 45° (NE) 21:06:19 145.827
DX 1 22 Dec 21:04:24 21:08:44 85° 76° (ENE) 21:13:06 434.975-435.025
HUMSAT D 22 Dec 21:06:21 21:09:53 28° 69° (ENE) 21:13:28 437.325/437.525
CUBEBUG 1 22 Dec 21:17:24 21:19:41 14° 64° (ENE) 21:21:58 437.445
AISAT 22 Dec 21:18:16 21:22:22 39° 71° (ENE) 21:26:28 437.250
AAUSAT CUBESAT 2 22 Dec 21:22:00 21:25:22 23° 265° (W) 21:28:47 437.432
Oscar 11 22 Dec 21:22:54 21:27:03 46° 261° (W) 21:31:16 145.826/435.025
SO-50 22 Dec 21:24:07 21:28:06 29° 312° (NW) 21:32:14 436.795
CUSAT 1 22 Dec 21:25:16 21:32:09 33° 272° (W) 21:39:23 437.405
UKube-1 22 Dec 21:33:01 21:37:11 46° 260° (W) 21:41:22 .
ANTELSAT 22 Dec 21:35:48 21:38:36 16° 91° (E) 21:41:24 437.575/2403.000
BEESAT 3 22 Dec 21:45:46 21:49:55 69° 241° (WSW) 21:54:00 437.485
BUGSAT 1 22 Dec 21:58:08 21:59:00 11° 91° (E) 21:59:51 437.445
50 SAT 22 Dec 21:59:42 22:03:42 86° 256° (WSW) 22:07:47 437.505
ZACube-1 22 Dec 21:59:59 22:03:54 39° 262° (W) 22:07:55 437.345
CUBEBUG 2 22 Dec 22:00:34 22:04:11 28° 264° (W) 22:07:53 437.445
DELFI C3 22 Dec 22:00:56 22:04:00 20° 266° (W) 22:07:04 145.870
TISAT 1 22 Dec 22:05:21 22:06:26 11° 62° (ENE) 22:07:31 437.305
AIST 2 22 Dec 22:06:39 22:10:58 80° 58° (ENE) 22:15:11 435.215
TIGRISAT 22 Dec 22:08:34 22:12:50 33° 97° (E) 22:17:05 435.000
DUCHIFAT 1 22 Dec 22:09:06 22:12:15 20° 94° (E) 22:15:23 145.980
VELOX 1 22 Dec 22:09:50 22:14:11 57° 259° (W) 22:18:32 145.980
YUBILEINY 22 Dec 22:13:09 22:19:41 24° 81° (E) 22:26:10 435.215
SPROUT 22 Dec 22:15:40 22:17:47 14° 64° (ENE) 22:19:55 437.525
ESTCUBE 1 22 Dec 22:21:08 22:25:40 74° 75° (ENE) 22:30:12 437.505/2401.250
QB50P2 22 Dec 22:24:01 22:27:48 30° 97° (E) 22:31:34 145.880/145.840
FUNcube-1 22 Dec 22:26:56 22:30:04 20° 266° (W) 22:33:16 145.935
BEESAT 2 22 Dec 22:28:27 22:31:59 27° 247° (WSW) 22:35:28 435.950
DANDE 22 Dec 22:31:51 22:35:04 13° 280° (W) 22:38:22 436.750
NANOSAT C BR1 22 Dec 22:33:35 22:37:33 37° 98° (E) 22:41:32 145.865
POLYITAN 1 22 Dec 22:33:35 22:37:36 38° 98° (E) 22:41:38 437.675
UWE-3 22 Dec 22:35:06 22:37:23 14° 269° (W) 22:39:41 435.000/436.395/437.385
UNISAT 6 22 Dec 22:38:46 22:43:30 72° 102° (ESE) 22:48:12 437.425
PCSat 22 Dec 22:41:08 22:46:33 73° 244° (WSW) 22:51:56 145.827
HUMSAT D 22 Dec 22:42:24 22:45:40 22° 266° (W) 22:48:58 437.325/437.525
QB50P1 22 Dec 22:48:17 22:52:29 56° 101° (E) 22:56:41 145.935-145.965
CUBEBUG 1 22 Dec 22:51:20 22:55:36 53° 260° (W) 22:59:52 437.445
AISAT 22 Dec 22:56:05 22:59:08 18° 266° (W) 23:02:11 437.250
RS-15 22 Dec 23:04:28 23:11:20 18° 261° (W) 23:18:24 29.354- 29.394
ANTELSAT 22 Dec 23:11:05 23:15:41 53° 287° (WNW) 23:20:16 437.575/2403.000
POPSAT HIP 1 22 Dec 23:17:19 23:21:34 67° 285° (WNW) 23:25:48 437.405
BUGSAT 1 22 Dec 23:30:50 23:34:49 57° 286° (WNW) 23:38:49 437.445
TISAT 1 22 Dec 23:37:31 23:41:41 67° 259° (WSW) 23:45:53 437.305
DUCHIFAT 1 22 Dec 23:44:20 23:48:10 33° 289° (WNW) 23:51:59 145.980
TIGRISAT 22 Dec 23:45:35 23:49:24 25° 292° (WNW) 23:53:13 435.000
SPROUT 22 Dec 23:49:14 23:53:25 53° 260° (W) 23:57:37 437.525
AUBIESAT-1 22 Dec 23:50:39 23:53:35 16° 58° (ENE) 23:56:30 437.475
SWISSCUBE 22 Dec 23:57:15 00:01:29 32° 69° (ENE) 00:05:43 437.505
ITUPSAT 1 22 Dec 23:58:52 00:03:02 30° 68° (ENE) 00:07:13 437.325
QB50P2 23 Dec 00:00:12 00:03:33 23° 292° (WNW) 00:06:54 145.880/145.840
YUBILEINY 23 Dec 00:06:56 00:15:37 69° 280° (W) 00:24:20 435.215
O/OREOS (USA 219) 23 Dec 00:08:13 00:12:40 88° 110° (ESE) 00:17:09 437.305
NANOSAT C BR1 23 Dec 00:10:13 00:13:09 18° 294° (WNW) 00:16:05 145.865
POLYITAN 1 23 Dec 00:10:18 00:13:15 18° 294° (WNW) 00:16:12 437.675
M-CUBED/EXP-1 PRIME 23 Dec 00:16:39 00:20:52 30° 63° (ENE) 00:25:08 437.505
UNISAT 6 23 Dec 00:17:37 00:19:40 13° 298° (WNW) 00:21:42 437.425
BEESAT 23 Dec 00:21:13 00:25:51 52° 72° (ENE) 00:30:31 436.000
Oscar 19 23 Dec 00:21:23 00:24:14 15° 91° (E) 00:27:04 437.125/150
QB50P1 23 Dec 00:25:56 00:27:53 13° 296° (WNW) 00:29:51 145.935-145.965
KKS-1 23 Dec 00:44:55 00:47:54 18° 65° (ENE) 00:50:54 437.445
AUBIESAT-1 23 Dec 01:23:09 01:27:57 67° 254° (WSW) 01:32:50 437.475
VERMONT LUNAR 23 Dec 01:23:47 01:26:44 25° 152° (SSE) 01:29:42 437.305
SWISSCUBE 23 Dec 01:35:20 01:39:19 26° 265° (W) 01:43:20 437.505
ITUPSAT 1 23 Dec 01:36:47 01:40:52 28° 264° (W) 01:44:59 437.325
PHONESAT 2.4 23 Dec 01:50:18 01:53:23 26° 152° (SSE) 01:56:27 2401.200-2431.200
M-CUBED/EXP-1 PRIME 23 Dec 01:51:24 01:55:44 32° 259° (W) 02:00:08 437.505
O/OREOS (USA 219) 23 Dec 01:52:06 01:52:44 10° 309° (NW) 01:53:23 437.305
Oscar 19 23 Dec 01:58:50 02:04:00 64° 287° (WNW) 02:09:07 437.125/150
BEESAT 23 Dec 02:01:04 02:03:59 16° 268° (W) 02:06:55 436.000
HORYU 2 23 Dec 02:09:41 02:11:15 12° 90° (E) 02:12:49 437.375
STARS 23 Dec 02:10:16 02:14:38 82° 257° (WSW) 02:19:03 437.465
YUBILEINY 23 Dec 02:10:38 02:14:14 13° 302° (WNW) 02:17:51 435.215
KKS-1 23 Dec 02:20:01 02:24:12 42° 261° (W) 02:28:26 437.445
ITAMSAT 1 23 Dec 02:20:23 02:25:34 75° 103° (ESE) 02:30:44 435.822/435.867
Gurwin Techsat 1B 23 Dec 02:30:57 02:36:12 59° 101° (E) 02:41:25 435.225
AIST 1 23 Dec 02:41:45 02:45:40 34° 77° (ENE) 02:49:33
VERMONT LUNAR 23 Dec 03:01:15 03:04:47 79° 168° (SSE) 03:08:18 437.305
PHONESAT 2.4 23 Dec 03:28:10 03:31:48 79° 168° (SSE) 03:35:25 2401.200-2431.200
AO-7 23 Dec 03:38:50 03:46:38 41° 99° (E) 03:54:21 29.400- 29.500
HORYU 2 23 Dec 03:43:50 03:48:19 64° 286° (WNW) 03:52:46 437.375
MOZHAYETS 4 23 Dec 03:48:13 03:52:42 50° 73° (ENE) 03:57:13
ITAMSAT 1 23 Dec 04:01:49 04:04:24 14° 300° (WNW) 04:07:00 435.822/435.867
GONETS M04 23 Dec 04:07:36 04:14:51 30° 83° (E) 04:22:05
Gurwin Techsat 1B 23 Dec 04:12:10 04:15:40 18° 297° (WNW) 04:19:10 435.225
JAS-2 23 Dec 04:14:02 04:18:20 23° 93° (E) 04:22:26 435.910
SO-50 23 Dec 04:15:21 04:19:36 29° 48° (NE) 04:23:52 436.795
AIST 1 23 Dec 04:20:12 04:23:02 17° 273° (W) 04:25:50
VERMONT LUNAR 23 Dec 04:39:35 04:43:07 83° 5° (N) 04:46:39 437.305
STRAND 1 23 Dec 04:59:18 05:03:04 21° 64° (ENE) 05:06:50 437.568
PHONESAT 2.4 23 Dec 05:06:53 05:10:31 84° 5° (N) 05:14:09 2401.200-2431.200
PRISM 23 Dec 05:08:13 05:12:20 54° 73° (ENE) 05:16:28 437.425
CUBESAT XI-V 23 Dec 05:19:30 05:23:41 34° 70° (ENE) 05:27:51 437.345
MOZHAYETS 4 23 Dec 05:27:26 05:30:12 16° 269° (W) 05:32:58
AO-7 23 Dec 05:31:36 05:39:24 45° 297° (WNW) 05:47:11 29.400- 29.500
Cubesat XI-IV 23 Dec 05:37:28 05:42:03 29° 96° (E) 05:46:36 437.490
SO-50 23 Dec 05:55:42 06:00:13 38° 245° (WSW) 06:04:44 436.795
JAS-2 23 Dec 05:58:33 06:03:40 39° 292° (WNW) 06:08:28 435.910
GONETS M04 23 Dec 06:02:25 06:11:05 59° 282° (WNW) 06:19:47
CUTE-I 23 Dec 06:09:27 06:14:41 57° 101° (E) 06:19:54 437.470
VERMONT LUNAR 23 Dec 06:17:57 06:21:20 45° 201° (SSW) 06:24:42 437.305
STRAND 1 23 Dec 06:37:01 06:41:55 46° 261° (W) 06:46:50 437.568
PHONESAT 2.4 23 Dec 06:45:38 06:49:07 45° 201° (SSW) 06:52:35 2401.200-2431.200
PRISM 23 Dec 06:46:27 06:48:10 12° 269° (W) 06:49:52 437.425
CUBESAT XI-V 23 Dec 06:57:26 07:01:09 23° 266° (W) 07:04:52 437.345
Cubesat XI-IV 23 Dec 07:17:21 07:22:08 35° 292° (WNW) 07:26:54 437.490
MaSat-1 23 Dec 07:28:12 07:30:00 21° 110° (ESE) 07:31:46 437.345
CUTE-I 23 Dec 07:50:40 07:54:17 19° 297° (WNW) 07:57:54 437.470
HO-68 23 Dec 07:52:33 07:58:05 24° 93° (E) 08:03:35 435.675
CANX-2 23 Dec 07:55:06 07:57:48 16° 92° (E) 08:00:28 2200.000
VERMONT LUNAR 23 Dec 07:58:06 07:59:05 11° 216° (SW) 08:00:04 437.305
COMPASS 1 23 Dec 08:08:43 08:11:06 15° 92° (E) 08:13:29 437.405
GONETS M04 23 Dec 08:08:44 08:10:06 10° 305° (NW) 08:11:27
SEEDS 23 Dec 08:17:33 08:20:55 22° 94° (E) 08:24:16 437.485
DANDE 23 Dec 08:18:28 08:20:49 16° 81° (E) 08:23:33 436.750
BRITE-PL 23 Dec 08:24:19 08:28:53 40° 98° (E) 08:33:45 437.365/2234.400
CUTE 1.7 + AOD 2 23 Dec 08:24:34 08:28:26 31° 96° (E) 08:32:15 437.475
PHONESAT 2.4 23 Dec 08:26:07 08:27:13 11° 216° (SW) 08:28:20 2401.200-2431.200
YUBILEINY 23 Dec 08:26:38 08:27:31 10° 55° (NE) 08:28:23 435.215
ANTELSAT 23 Dec 08:35:42 08:37:41 13° 62° (ENE) 08:39:41 437.575/2403.000
GOMX 1 23 Dec 08:36:02 08:40:35 38° 98° (E) 08:45:24 467.674
O/OREOS (USA 219) 23 Dec 08:40:46 08:43:33 16° 55° (NE) 08:46:21 437.305
DOVE 4 23 Dec 08:47:46 08:52:17 37° 98° (E) 08:57:01 437.250
UWE-3 23 Dec 08:49:45 08:50:53 11° 89° (E) 08:52:01 435.000/436.395/437.385
CINEMA 3 23 Dec 08:51:46 08:55:41 24° 95° (E) 08:59:41 145.822/145.860
CUSAT 1 23 Dec 08:53:13 08:56:54 51° 93° (E) 09:01:53 437.405
DX 1 23 Dec 08:54:59 08:57:31 15° 93° (E) 09:00:03 434.975-435.025
DUCHIFAT 1 23 Dec 09:02:28 09:04:48 15° 65° (ENE) 09:07:08 145.980
AAUSAT CUBESAT 2 23 Dec 09:05:18 09:09:29 57° 100° (E) 09:13:38 437.432
RS-15 23 Dec 09:06:57 09:12:03 15° 97° (E) 09:17:07 29.354- 29.394
TIGRISAT 23 Dec 09:07:20 09:10:59 26° 68° (ENE) 09:14:43 435.000
Oscar 11 23 Dec 09:11:08 09:15:04 32° 97° (E) 09:18:57 145.826/435.025
QB50P2 23 Dec 09:17:14 09:20:27 22° 68° (ENE) 09:23:42 145.880/145.840
UKube-1 23 Dec 09:21:44 09:25:31 29° 97° (E) 09:29:17 .
NANOSAT C BR1 23 Dec 09:26:18 09:29:50 27° 69° (ENE) 09:33:22 145.865
POLYITAN 1 23 Dec 09:26:46 09:30:19 27° 69° (ENE) 09:33:55 437.675
CANX-2 23 Dec 09:29:50 09:33:55 42° 288° (WNW) 09:37:58 2200.000
UNISAT 6 23 Dec 09:37:21 09:41:38 57° 74° (ENE) 09:46:04 437.425
HO-68 23 Dec 09:39:11 09:46:13 63° 291° (WNW) 09:53:13 435.675
QB50P1 23 Dec 09:40:49 09:44:43 38° 72° (ENE) 09:48:39 145.935-145.965
DELFI C3 23 Dec 09:41:01 09:45:06 59° 100° (E) 09:49:08 145.870
50 SAT 23 Dec 09:42:06 09:44:20 14° 92° (E) 09:46:33 437.505
COMPASS 1 23 Dec 09:42:59 09:47:03 45° 287° (WNW) 09:51:04 437.405
ZACube-1 23 Dec 09:49:04 09:53:23 40° 98° (E) 09:57:43 437.345
CUBEBUG 2 23 Dec 09:51:24 09:56:02 61° 101° (E) 10:00:45 437.445
SEEDS 23 Dec 09:53:00 09:56:44 30° 290° (WNW) 10:00:27 437.485
DANDE 23 Dec 10:00:11 10:03:38 34° 290° (WNW) 10:08:10 436.750
CUTE 1.7 + AOD 2 23 Dec 10:00:50 10:04:10 22° 292° (WNW) 10:07:29 437.475
VELOX 1 23 Dec 10:01:41 10:05:30 28° 96° (E) 10:09:17 145.980
BRITE-PL 23 Dec 10:03:25 10:07:11 23° 292° (WNW) 10:11:09 437.365/2234.400
ANTELSAT 23 Dec 10:09:33 10:13:53 63° 259° (W) 10:18:23 437.575/2403.000
POPSAT HIP 1 23 Dec 10:09:35 10:13:47 84° 76° (ENE) 10:18:01 437.405
GOMX 1 23 Dec 10:14:36 10:18:31 25° 292° (WNW) 10:22:36 467.674
FUNcube-1 23 Dec 10:14:41 10:19:16 77° 102° (ESE) 10:23:52 145.935
ESTCUBE 1 23 Dec 10:16:03 10:18:52 16° 92° (E) 10:21:40 437.505/2401.250
YUBILEINY 23 Dec 10:17:54 10:26:28 59° 78° (ENE) 10:35:00 435.215
O/OREOS (USA 219) 23 Dec 10:18:53 10:23:18 54° 252° (WSW) 10:27:43 437.305
BUGSAT 1 23 Dec 10:20:19 10:24:25 90° 70° (ENE) 10:28:29 437.445
UWE-3 23 Dec 10:23:14 10:27:51 73° 285° (WNW) 10:32:31 435.000/436.395/437.385
DOVE 4 23 Dec 10:25:56 10:29:52 25° 292° (WNW) 10:33:57 437.250
HUMSAT D 23 Dec 10:26:30 10:30:49 60° 101° (E) 10:35:07 437.325/437.525
CINEMA 3 23 Dec 10:28:32 10:32:54 36° 289° (WNW) 10:37:24 145.822/145.860
DX 1 23 Dec 10:29:49 10:33:59 45° 288° (WNW) 10:38:07 434.975-435.025
DUCHIFAT 1 23 Dec 10:36:12 10:40:15 47° 261° (W) 10:44:19 145.980
CUSAT 1 23 Dec 10:38:40 10:40:50 13° 301° (WNW) 10:43:18 437.405
CUBEBUG 1 23 Dec 10:41:24 10:45:10 28° 96° (E) 10:48:54 437.445
AAUSAT CUBESAT 2 23 Dec 10:42:50 10:44:38 13° 296° (WNW) 10:46:26 437.432
TIGRISAT 23 Dec 10:43:56 10:47:38 27° 265° (W) 10:51:27 435.000
AISAT 23 Dec 10:46:11 10:50:39 90° 106° (ESE) 10:55:07 437.250
Oscar 11 23 Dec 10:47:40 10:51:02 22° 293° (WNW) 10:54:22 145.826/435.025
QB50P2 23 Dec 10:52:28 10:56:12 30° 263° (W) 10:59:57 145.880/145.840
UKube-1 23 Dec 10:58:03 11:01:32 24° 293° (WNW) 11:05:00 .
NANOSAT C BR1 23 Dec 11:02:13 11:05:39 24° 265° (W) 11:09:06 145.865
POLYITAN 1 23 Dec 11:02:50 11:06:14 24° 265° (W) 11:09:39 437.675
RS-15 23 Dec 11:11:26 11:22:18 74° 117° (ESE) 11:33:12 29.354- 29.394
50 SAT 23 Dec 11:15:47 11:19:45 45° 287° (WNW) 11:23:42 437.505
UNISAT 6 23 Dec 11:16:58 11:18:49 12° 270° (W) 11:20:42 437.425
QB50P1 23 Dec 11:18:04 11:20:46 17° 267° (W) 11:23:29 145.935-145.965
DELFI C3 23 Dec 11:18:25 11:19:50 12° 297° (WNW) 11:21:14 145.870
TISAT 1 23 Dec 11:24:00 11:27:08 20° 94° (E) 11:30:16 437.305
ZACube-1 23 Dec 11:26:11 11:29:27 20° 293° (WNW) 11:32:45 437.345
CUBEBUG 2 23 Dec 11:29:41 11:32:14 15° 296° (WNW) 11:34:48 437.445
HO-68 23 Dec 11:30:12 11:32:31 12° 310° (NW) 11:34:51 435.675
SPROUT 23 Dec 11:37:05 11:40:46 27° 96° (E) 11:44:25 437.525
Oscar 19 23 Dec 11:37:25 11:41:12 21° 64° (ENE) 11:45:00 437.125/150
VELOX 1 23 Dec 11:38:18 11:41:58 26° 292° (WNW) 11:45:38 145.980
BEESAT 3 23 Dec 11:40:12 11:43:36 26° 113° (ESE) 11:47:03 437.485
PCSat 23 Dec 11:41:25 11:44:31 16° 104° (ESE) 11:47:37 145.827
ESTCUBE 1 23 Dec 11:51:40 11:55:57 45° 288° (WNW) 12:00:13 437.505/2401.250
FUNcube-1 23 Dec 11:53:39 11:54:58 11° 298° (WNW) 11:56:17 145.935
ITAMSAT 1 23 Dec 12:01:41 12:04:08 14° 60° (ENE) 12:06:35 435.822/435.867
HUMSAT D 23 Dec 12:04:11 12:06:05 13° 296° (WNW) 12:08:00 437.325/437.525
AIST 2 23 Dec 12:05:26 12:08:32 20° 111° (ESE) 12:11:40 435.215
YUBILEINY 23 Dec 12:15:37 12:22:40 29° 277° (W) 12:29:44 435.215
Gurwin Techsat 1B 23 Dec 12:15:57 12:17:33 11° 58° (ENE) 12:19:09 435.225
CUBEBUG 1 23 Dec 12:17:54 12:21:25 25° 292° (WNW) 12:24:55 437.445
BEESAT 2 23 Dec 12:22:12 12:26:16 68° 119° (ESE) 12:30:26 435.950
BEESAT 23 Dec 12:23:58 12:26:25 14° 91° (E) 12:28:50 436.000
ISS 23 Dec 12:29:16 12:32:34 88° 142° (SE) 12:35:53 145.825
AO-7 23 Dec 12:51:31 12:53:59 12° 44° (NE) 12:56:27 29.400- 29.500
TISAT 1 23 Dec 12:59:13 13:03:00 32° 290° (WNW) 13:06:47 437.305
HORYU 2 23 Dec 13:08:39 13:09:56 11° 61° (ENE) 13:11:14 437.375
SPROUT 23 Dec 13:13:12 13:16:45 25° 291° (WNW) 13:20:17 437.525
Oscar 19 23 Dec 13:15:14 13:20:10 47° 261° (W) 13:25:10 437.125/150
BEESAT 3 23 Dec 13:18:04 13:21:40 29° 310° (NW) 13:25:21 437.485
PCSat 23 Dec 13:21:55 13:27:17 68° 300° (WNW) 13:32:43 145.827
RS-15 23 Dec 13:25:52 13:35:37 36° 321° (NW) 13:45:33 29.354- 29.394
SWISSCUBE 23 Dec 13:35:30 13:40:17 85° 104° (ESE) 13:45:02 437.505
M-CUBED/EXP-1 PRIME 23 Dec 13:35:55 13:39:10 22° 98° (E) 13:42:12 437.505
ITUPSAT 1 23 Dec 13:37:18 13:42:06 80° 103° (ESE) 13:46:51 437.325
ITAMSAT 1 23 Dec 13:37:46 13:42:56 78° 257° (WSW) 13:48:08 435.822/435.867
AIST 2 23 Dec 13:42:54 13:46:52 39° 308° (NW) 13:50:55 435.215
Gurwin Techsat 1B 23 Dec 13:51:22 13:56:40 86° 75° (ENE) 14:02:00 435.225
BEESAT 23 Dec 13:59:56 14:04:37 59° 287° (WNW) 14:09:16 436.000
STARS 23 Dec 14:01:52 14:05:07 20° 94° (E) 14:08:21 437.465
BEESAT 2 23 Dec 14:02:38 14:04:59 15° 317° (NW) 14:07:21 435.950
ISS 23 Dec 14:07:08 14:09:31 18° 340° (NNW) 14:11:54 145.825
KKS-1 23 Dec 14:11:50 14:16:01 38° 98° (E) 14:20:11 437.445
GONETS M04 23 Dec 14:19:43 14:23:30 13° 58° (ENE) 14:27:16
JAS-2 23 Dec 14:26:44 14:30:25 15° 58° (ENE) 14:33:57 435.910
AO-7 23 Dec 14:36:53 14:44:51 53° 65° (ENE) 14:52:52 29.400- 29.500
HORYU 2 23 Dec 14:41:30 14:45:57 75° 257° (WSW) 14:50:28 437.375
AUBIESAT-1 23 Dec 14:42:01 14:46:13 67° 290° (WNW) 14:50:01 437.475
PCSat 23 Dec 15:09:29 15:11:44 13° 321° (NW) 15:14:01 145.827
M-CUBED/EXP-1 PRIME 23 Dec 15:10:31 15:14:13 29° 297° (WNW) 15:17:38 437.505
AIST 1 23 Dec 15:11:17 15:14:39 22° 88° (E) 15:18:01
SWISSCUBE 23 Dec 15:16:19 15:17:25 11° 300° (WNW) 15:18:31 437.505
ITUPSAT 1 23 Dec 15:17:46 15:19:17 11° 300° (WNW) 15:20:49 437.325
Gurwin Techsat 1B 23 Dec 15:36:05 15:37:16 11° 272° (W) 15:38:28 435.225
STARS 23 Dec 15:37:36 15:41:41 37° 289° (WNW) 15:45:45 437.465
RS-15 23 Dec 15:45:32 15:52:40 19° 356° (N) 15:59:55 29.354- 29.394
ISS 23 Dec 15:46:08 15:47:08 11° 0° (N) 15:48:07 145.825
MOZHAYETS 4 23 Dec 15:46:10 15:48:10 13° 90° (E) 15:50:08
KKS-1 23 Dec 15:49:08 15:52:23 20° 294° (WNW) 15:55:38 437.445
CUTE-I 23 Dec 15:55:06 15:56:49 12° 58° (ENE) 15:58:31 437.470
JAS-2 23 Dec 16:07:00 16:14:35 78° 74° (ENE) 16:21:26 435.910
GONETS M04 23 Dec 16:13:23 16:22:09 70° 80° (E) 16:30:47
AO-7 23 Dec 16:30:29 16:37:50 35° 263° (W) 16:45:16 29.400- 29.500
AIST 1 23 Dec 16:48:20 16:52:08 29° 284° (WNW) 16:55:56
MaSat-1 23 Dec 16:57:16 16:59:21 26° 61° (ENE) 17:01:32 437.345
Cubesat XI-IV 23 Dec 16:58:47 17:03:49 45° 70° (ENE) 17:08:52 437.490
MOZHAYETS 4 23 Dec 17:21:13 17:25:46 60° 286° (WNW) 17:30:17
ISS 23 Dec 17:22:18 17:24:44 19° 21° (NNE) 17:27:09 145.825
CUTE-I 23 Dec 17:30:44 17:36:03 87° 75° (ENE) 17:41:23 437.470
CUSAT 1 23 Dec 17:51:42 17:54:20 12° 59° (ENE) 17:57:00 437.405
JAS-2 23 Dec 17:54:54 18:00:01 20° 268° (W) 18:04:52 435.910
RS-15 23 Dec 18:01:02 18:10:23 29° 32° (NNE) 18:19:58 29.354- 29.394
GONETS M04 23 Dec 18:11:37 18:18:04 24° 279° (W) 18:24:29
HO-68 23 Dec 18:22:03 18:26:37 18° 55° (NE) 18:31:11 435.675
PRISM 23 Dec 18:27:22 18:31:31 81° 284° (WNW) 18:35:38 437.425
Cubesat XI-IV 23 Dec 18:40:01 18:44:05 22° 266° (W) 18:48:11 437.490
